Time,TemperatureF,DewpointF,PressureIn,WindDirection,WindDirectionDegrees,WindSpeedMPH,WindSpeedGustMPH,Humidity,HourlyPrecipIn,Conditions,Clouds,dailyrainin,SoftwareType,DateUTC
2013-02-23 00:02:00,50.0,44.4,30.23,NE,46,0.0,8.0,81,0.00,,,0.00,meteohub,2013-02-23 08:02:00,
2013-02-23 00:07:00,49.8,44.2,30.22,NNW,332,3.0,7.0,81,0.00,,,0.00,meteohub,2013-02-23 08:07:00,
2013-02-23 00:12:00,49.6,43.7,30.22,NNW,347,6.0,7.0,80,0.00,,,0.00,meteohub,2013-02-23 08:12:00,
2013-02-23 00:17:00,49.6,44.1,30.22,NNE,18,4.0,8.0,81,0.00,,,0.00,meteohub,2013-02-23 08:17:00,
2013-02-23 00:22:00,49.5,43.9,30.22,NNW,346,2.0,8.0,81,0.00,,,0.00,meteohub,2013-02-23 08:22:00,
2013-02-23 00:27:00,49.3,44.1,30.22,North,356,1.0,8.0,82,0.00,,,0.00,meteohub,2013-02-23 08:27:00,
2013-02-23 00:32:00,49.1,44.2,30.22,NW,312,2.0,6.0,83,0.00,,,0.00,meteohub,2013-02-23 08:32:00,
2013-02-23 00:37:00,49.1,44.4,30.22,NNW,342,0.0,6.0,84,0.00,,,0.00,meteohub,2013-02-23 08:37:00,
2013-02-23 00:42:00,48.9,44.2,30.22,North,351,3.0,7.0,84,0.00,,,0.00,meteohub,2013-02-23 08:42:00,
2013-02-23 00:47:00,48.9,44.2,30.22,North,6,4.0,7.0,84,0.00,,,0.00,meteohub,2013-02-23 08:47:00,
2013-02-23 00:52:00,48.9,44.6,30.22,NNW,338,5.0,8.0,85,0.00,,,0.00,meteohub,2013-02-23 08:52:00,
2013-02-23 00:57:00,48.9,44.6,30.22,NNE,12,7.0,8.0,85,0.00,,,0.00,meteohub,2013-02-23 08:57:00,
2013-02-23 01:02:00,48.9,44.6,30.22,West,272,2.0,10.0,85,0.00,,,0.00,meteohub,2013-02-23 09:02:00,
2013-02-23 01:07:00,49.1,45.1,30.22,WNW,300,3.0,10.0,86,0.00,,,0.00,meteohub,2013-02-23 09:07:00,
2013-02-23 01:12:00,49.1,45.1,30.22,North,5,4.0,10.0,86,0.00,,,0.00,meteohub,2013-02-23 09:12:00,
2013-02-23 01:17:00,49.1,45.3,30.22,North,11,4.0,10.0,87,0.00,,,0.00,meteohub,2013-02-23 09:17:00,
2013-02-23 01:22:00,49.1,45.3,30.22,North,11,6.0,11.0,87,0.00,,,0.00,meteohub,2013-02-23 09:22:00,
2013-02-23 01:27:00,49.1,45.3,30.22,North,6,3.0,11.0,87,0.00,,,0.00,meteohub,2013-02-23 09:27:00,
2013-02-23 01:32:00,49.1,45.3,30.21,North,9,9.0,11.0,87,0.00,,,0.00,meteohub,2013-02-23 09:32:00,
2013-02-23 01:37:00,49.3,45.5,30.22,NNW,333,5.0,13.0,87,0.00,,,0.00,meteohub,2013-02-23 09:37:00,
2013-02-23 01:42:00,49.3,45.5,30.21,NNW,334,3.0,13.0,87,0.00,,,0.00,meteohub,2013-02-23 09:42:00,
2013-02-23 01:47:00,49.3,45.9,30.22,NW,314,2.0,13.0,88,0.00,,,0.00,meteohub,2013-02-23 09:47:00,
2013-02-23 01:52:00,49.5,46.0,30.21,WNW,283,3.0,11.0,88,0.00,,,0.00,meteohub,2013-02-23 09:52:00,
2013-02-23 01:57:00,49.5,46.0,30.21,NNE,23,2.0,9.0,88,0.00,,,0.00,meteohub,2013-02-23 09:57:00,
2013-02-23 02:02:00,49.3,46.2,30.22,NNE,25,2.0,9.0,89,0.00,,,0.00,meteohub,2013-02-23 10:02:00,
2013-02-23 02:07:00,49.3,46.2,30.22,East,79,2.0,10.0,89,0.00,,,0.00,meteohub,2013-02-23 10:07:00,
2013-02-23 02:12:00,49.3,46.4,30.21,WNW,288,2.0,10.0,90,0.00,,,0.00,meteohub,2013-02-23 10:12:00,
2013-02-23 02:17:00,49.3,46.4,30.21,NNW,335,3.0,10.0,90,0.00,,,0.00,meteohub,2013-02-23 10:17:00,
2013-02-23 02:22:00,49.3,46.8,30.20,North,5,6.0,10.0,91,0.00,,,0.00,meteohub,2013-02-23 10:22:00,
2013-02-23 02:27:00,49.3,46.8,30.20,NW,323,1.0,8.0,91,0.00,,,0.00,meteohub,2013-02-23 10:27:00,
2013-02-23 02:32:00,49.3,46.8,30.20,NE,34,3.0,7.0,91,0.00,,,0.00,meteohub,2013-02-23 10:32:00,
2013-02-23 02:37:00,49.3,46.8,30.20,North,359,4.0,7.0,91,0.00,,,0.00,meteohub,2013-02-23 10:37:00,
2013-02-23 02:42:00,49.3,46.8,30.20,NNE,13,5.0,10.0,91,0.00,,,0.00,meteohub,2013-02-23 10:42:00,
2013-02-23 02:47:00,49.3,46.8,30.20,NNE,25,5.0,10.0,91,0.00,,,0.00,meteohub,2013-02-23 10:47:00,
2013-02-23 02:52:00,49.3,47.1,30.20,WNW,302,5.0,11.0,92,0.00,,,0.00,meteohub,2013-02-23 10:52:00,
2013-02-23 02:57:00,49.3,47.1,30.20,NE,39,2.0,11.0,92,0.00,,,0.00,meteohub,2013-02-23 10:57:00,
2013-02-23 03:02:00,49.3,47.1,30.19,NNW,334,3.0,9.0,92,0.00,,,0.00,meteohub,2013-02-23 11:02:00,
2013-02-23 03:07:00,49.1,47.1,30.19,South,183,1.0,9.0,93,0.00,,,0.00,meteohub,2013-02-23 11:07:00,
2013-02-23 03:12:00,49.1,47.1,30.19,North,6,0.0,8.0,93,0.00,,,0.00,meteohub,2013-02-23 11:12:00,
2013-02-23 03:17:00,49.1,47.5,30.18,North,352,1.0,6.0,94,0.00,,,0.00,meteohub,2013-02-23 11:17:00,
2013-02-23 03:22:00,49.1,47.5,30.19,NNW,340,0.0,3.0,94,0.00,,,0.00,meteohub,2013-02-23 11:22:00,
2013-02-23 03:27:00,49.3,47.8,30.19,NNE,23,2.0,3.0,95,0.00,,,0.00,meteohub,2013-02-23 11:27:00,
2013-02-23 03:32:00,49.5,48.0,30.19,North,6,3.0,6.0,95,0.00,,,0.00,meteohub,2013-02-23 11:32:00,
2013-02-23 03:37:00,49.8,48.4,30.19,NE,50,3.0,6.0,95,0.00,,,0.00,meteohub,2013-02-23 11:37:00,
2013-02-23 03:42:00,49.8,48.4,30.19,NNE,26,2.0,8.0,95,0.00,,,0.00,meteohub,2013-02-23 11:42:00,
2013-02-23 03:47:00,49.8,48.4,30.20,NNW,338,4.0,8.0,95,0.00,,,0.00,meteohub,2013-02-23 11:47:00,
2013-02-23 03:52:00,49.6,47.7,30.20,NNE,25,2.0,10.0,93,0.00,,,0.00,meteohub,2013-02-23 11:52:00,
2013-02-23 03:57:00,49.6,47.7,30.20,NNW,348,3.0,10.0,93,0.00,,,0.00,meteohub,2013-02-23 11:57:00,
2013-02-23 04:02:00,49.5,47.5,30.19,NNW,333,3.0,10.0,93,0.00,,,0.00,meteohub,2013-02-23 12:02:00,
2013-02-23 04:07:00,49.3,47.3,30.19,NNW,332,3.0,9.0,93,0.00,,,0.00,meteohub,2013-02-23 12:07:00,
2013-02-23 04:12:00,49.1,47.1,30.19,North,352,2.0,11.0,93,0.00,,,0.00,meteohub,2013-02-23 12:12:00,
2013-02-23 04:17:00,48.9,46.9,30.19,North,8,7.0,11.0,93,0.00,,,0.00,meteohub,2013-02-23 12:17:00,
2013-02-23 04:22:00,48.9,46.9,30.19,NW,318,7.0,11.0,93,0.00,,,0.00,meteohub,2013-02-23 12:22:00,
2013-02-23 04:27:00,48.9,46.8,30.19,NNW,335,5.0,11.0,92,0.00,,,0.00,meteohub,2013-02-23 12:27:00,
2013-02-23 04:32:00,48.9,46.4,30.19,NNW,330,3.0,9.0,91,0.00,,,0.00,meteohub,2013-02-23 12:32:00,
2013-02-23 04:37:00,48.9,45.9,30.19,North,354,2.0,9.0,89,0.00,,,0.00,meteohub,2013-02-23 12:37:00,
2013-02-23 04:42:00,49.1,46.0,30.19,NNW,341,5.0,9.0,89,0.00,,,0.00,meteohub,2013-02-23 12:42:00,
2013-02-23 04:48:00,49.1,46.0,30.19,North,0,4.0,9.0,89,0.00,,,0.00,meteohub,2013-02-23 12:48:00,
2013-02-23 04:53:00,48.9,45.5,30.19,North,358,2.0,9.0,88,0.00,,,0.00,meteohub,2013-02-23 12:53:00,
2013-02-23 04:58:00,48.7,45.0,30.19,NW,314,3.0,9.0,87,0.00,,,0.00,meteohub,2013-02-23 12:58:00,
2013-02-23 05:03:00,48.7,44.8,30.19,NNW,332,2.0,9.0,86,0.00,,,0.00,meteohub,2013-02-23 13:03:00,
2013-02-23 05:08:00,48.4,44.4,30.19,NNW,338,1.0,8.0,86,0.00,,,0.00,meteohub,2013-02-23 13:08:00,
2013-02-23 05:13:00,48.0,44.1,30.19,NW,307,6.0,8.0,86,0.00,,,0.00,meteohub,2013-02-23 13:13:00,
2013-02-23 05:18:00,48.0,44.1,30.19,ENE,69,1.0,8.0,86,0.00,,,0.00,meteohub,2013-02-23 13:18:00,
2013-02-23 05:23:00,47.8,44.2,30.19,West,271,0.0,8.0,87,0.00,,,0.00,meteohub,2013-02-23 13:23:00,
2013-02-23 05:28:00,47.7,44.1,30.19,West,274,0.0,8.0,87,0.00,,,0.00,meteohub,2013-02-23 13:28:00,
2013-02-23 05:33:00,47.5,44.1,30.19,NNE,26,1.0,5.0,88,0.00,,,0.00,meteohub,2013-02-23 13:33:00,
2013-02-23 05:38:00,47.5,44.4,30.19,North,5,1.0,3.0,89,0.00,,,0.00,meteohub,2013-02-23 13:38:00,
2013-02-23 05:44:00,47.5,44.1,30.19,NNW,332,5.0,5.0,88,0.00,,,0.00,meteohub,2013-02-23 13:44:00,
2013-02-23 05:49:00,47.5,44.1,30.19,North,356,2.0,7.0,88,0.00,,,0.00,meteohub,2013-02-23 13:49:00,
2013-02-23 05:54:00,47.5,44.1,30.20,North,359,0.0,7.0,88,0.00,,,0.00,meteohub,2013-02-23 13:54:00,
2013-02-23 05:59:00,47.5,44.1,30.20,NNW,347,2.0,7.0,88,0.00,,,0.00,meteohub,2013-02-23 13:59:00,
2013-02-23 06:04:00,47.5,44.1,30.19,NNE,15,4.0,6.0,88,0.00,,,0.00,meteohub,2013-02-23 14:04:00,
2013-02-23 06:09:00,47.5,44.1,30.19,NNE,18,3.0,8.0,88,0.00,,,0.00,meteohub,2013-02-23 14:09:00,
2013-02-23 06:14:00,47.5,44.1,30.20,NNE,15,4.0,8.0,88,0.00,,,0.00,meteohub,2013-02-23 14:14:00,
2013-02-23 06:19:00,47.1,43.7,30.20,NNE,22,3.0,8.0,88,0.00,,,0.00,meteohub,2013-02-23 14:19:00,
2013-02-23 06:24:00,47.3,43.7,30.20,North,353,4.0,6.0,87,0.00,,,0.00,meteohub,2013-02-23 14:24:00,
2013-02-23 06:30:00,47.3,43.7,30.21,North,356,4.0,7.0,87,0.00,,,0.00,meteohub,2013-02-23 14:30:00,
2013-02-23 06:35:00,47.1,43.5,30.21,NNE,15,2.0,7.0,87,0.00,,,0.00,meteohub,2013-02-23 14:35:00,
2013-02-23 06:40:00,47.1,43.5,30.21,North,354,1.0,7.0,87,0.00,,,0.00,meteohub,2013-02-23 14:40:00,
2013-02-23 06:45:00,47.1,43.5,30.21,NNW,332,2.0,7.0,87,0.00,,,0.00,meteohub,2013-02-23 14:45:00,
2013-02-23 06:50:00,47.1,43.2,30.21,North,5,3.0,6.0,86,0.00,,,0.00,meteohub,2013-02-23 14:50:00,
2013-02-23 06:55:00,46.9,43.0,30.21,NNE,23,4.0,6.0,86,0.00,,,0.00,meteohub,2013-02-23 14:55:00,
2013-02-23 07:00:00,46.9,43.0,30.21,NE,41,1.0,6.0,86,0.00,,,0.00,meteohub,2013-02-23 15:00:00,
2013-02-23 07:05:00,46.8,42.8,30.22,NNW,348,0.0,6.0,86,0.00,,,0.00,meteohub,2013-02-23 15:05:00,
2013-02-23 07:10:00,46.6,42.6,30.22,North,350,1.0,5.0,86,0.00,,,0.00,meteohub,2013-02-23 15:10:00,
2013-02-23 07:15:00,46.6,42.6,30.22,NNW,338,0.0,2.0,86,0.00,,,0.00,meteohub,2013-02-23 15:15:00,
2013-02-23 07:21:00,46.4,42.8,30.22,NNW,338,0.0,1.0,87,0.00,,,0.00,meteohub,2013-02-23 15:21:00,
2013-02-23 07:26:00,46.4,42.4,30.23,NNW,340,0.0,1.0,86,0.00,,,0.00,meteohub,2013-02-23 15:26:00,
2013-02-23 07:31:00,46.6,42.6,30.23,SE,129,1.0,1.0,86,0.00,,,0.00,meteohub,2013-02-23 15:31:00,
2013-02-23 07:36:00,46.6,42.6,30.23,West,259,1.0,1.0,86,0.00,,,0.00,meteohub,2013-02-23 15:36:00,
2013-02-23 07:41:00,46.9,42.1,30.23,NW,312,0.0,2.0,83,0.00,,,0.00,meteohub,2013-02-23 15:41:00,
2013-02-23 07:46:00,47.1,42.6,30.24,SSE,164,1.0,2.0,84,0.00,,,0.00,meteohub,2013-02-23 15:46:00,
2013-02-23 07:52:00,47.1,42.3,30.24,NNW,340,1.0,2.0,83,0.00,,,0.00,meteohub,2013-02-23 15:52:00,
2013-02-23 07:57:00,47.5,42.3,30.24,ENE,68,1.0,2.0,82,0.00,,,0.00,meteohub,2013-02-23 15:57:00,
2013-02-23 08:02:00,48.0,42.1,30.24,NNE,25,3.0,3.0,80,0.00,,,0.00,meteohub,2013-02-23 16:02:00,
2013-02-23 08:07:00,48.4,40.8,30.25,East,84,6.0,6.0,75,0.00,,,0.00,meteohub,2013-02-23 16:07:00,
2013-02-23 08:12:00,48.9,41.0,30.25,NNE,15,5.0,8.0,74,0.00,,,0.00,meteohub,2013-02-23 16:12:00,
2013-02-23 08:17:00,49.1,41.2,30.25,East,89,2.0,8.0,74,0.00,,,0.00,meteohub,2013-02-23 16:17:00,
2013-02-23 08:22:00,49.3,40.3,30.25,North,5,7.0,8.0,71,0.00,,,0.00,meteohub,2013-02-23 16:22:00,
2013-02-23 08:27:00,49.3,40.3,30.25,NNE,13,6.0,8.0,71,0.00,,,0.00,meteohub,2013-02-23 16:27:00,
2013-02-23 08:32:00,49.5,39.4,30.26,NNE,15,7.0,8.0,68,0.00,,,0.00,meteohub,2013-02-23 16:32:00,
2013-02-23 08:37:00,49.6,39.6,30.26,NNE,15,9.0,10.0,68,0.00,,,0.00,meteohub,2013-02-23 16:37:00,
2013-02-23 08:42:00,49.6,39.6,30.26,North,8,6.0,12.0,68,0.00,,,0.00,meteohub,2013-02-23 16:42:00,
2013-02-23 08:47:00,49.8,38.5,30.26,NE,37,8.0,12.0,65,0.00,,,0.00,meteohub,2013-02-23 16:47:00,
2013-02-23 08:52:00,49.8,38.8,30.26,NNE,19,4.0,12.0,66,0.00,,,0.00,meteohub,2013-02-23 16:52:00,
2013-02-23 08:57:00,50.0,38.3,30.26,ENE,64,12.0,12.0,64,0.00,,,0.00,meteohub,2013-02-23 16:57:00,
2013-02-23 09:02:00,50.0,37.9,30.26,NNW,342,3.0,14.0,63,0.00,,,0.00,meteohub,2013-02-23 17:02:00,
2013-02-23 09:07:00,50.2,38.5,30.26,West,276,4.0,14.0,64,0.00,,,0.00,meteohub,2013-02-23 17:07:00,
2013-02-23 09:12:00,50.4,39.0,30.26,NNE,19,6.0,14.0,65,0.00,,,0.00,meteohub,2013-02-23 17:12:00,
2013-02-23 09:17:00,50.7,39.4,30.26,North,5,4.0,9.0,65,0.00,,,0.00,meteohub,2013-02-23 17:17:00,
2013-02-23 09:22:00,50.7,38.7,30.26,East,90,4.0,9.0,63,0.00,,,0.00,meteohub,2013-02-23 17:22:00,
2013-02-23 09:27:00,51.1,38.8,30.26,North,349,1.0,9.0,63,0.00,,,0.00,meteohub,2013-02-23 17:27:00,
2013-02-23 09:32:00,51.3,38.7,30.26,WNW,283,3.0,8.0,62,0.00,,,0.00,meteohub,2013-02-23 17:32:00,
2013-02-23 09:37:00,51.6,39.0,30.26,NW,304,3.0,8.0,62,0.00,,,0.00,meteohub,2013-02-23 17:37:00,
2013-02-23 09:42:00,51.8,38.3,30.26,NNE,30,1.0,8.0,60,0.00,,,0.00,meteohub,2013-02-23 17:42:00,
2013-02-23 09:47:00,52.2,38.3,30.26,West,281,3.0,5.0,59,0.00,,,0.00,meteohub,2013-02-23 17:47:00,
2013-02-23 09:52:00,52.3,37.9,30.26,North,11,4.0,6.0,58,0.00,,,0.00,meteohub,2013-02-23 17:52:00,
2013-02-23 09:58:00,52.5,37.8,30.25,NE,36,3.0,7.0,57,0.00,,,0.00,meteohub,2013-02-23 17:58:00,
2013-02-23 10:03:00,52.9,38.1,30.25,North,1,3.0,7.0,57,0.00,,,0.00,meteohub,2013-02-23 18:03:00,
2013-02-23 10:08:00,53.2,38.5,30.25,NNW,329,6.0,7.0,57,0.00,,,0.00,meteohub,2013-02-23 18:08:00,
2013-02-23 10:13:00,53.2,37.0,30.25,North,354,3.0,7.0,54,0.00,,,0.00,meteohub,2013-02-23 18:13:00,
2013-02-23 10:18:00,53.6,37.8,30.25,NE,46,4.0,6.0,55,0.00,,,0.00,meteohub,2013-02-23 18:18:00,
2013-02-23 10:23:00,53.8,37.0,30.25,NNW,347,2.0,6.0,53,0.00,,,0.00,meteohub,2013-02-23 18:23:00,
2013-02-23 10:28:00,54.0,37.2,30.25,NNE,25,6.0,6.0,53,0.00,,,0.00,meteohub,2013-02-23 18:28:00,
2013-02-23 10:33:00,54.5,37.8,30.25,East,92,4.0,7.0,53,0.00,,,0.00,meteohub,2013-02-23 18:33:00,
2013-02-23 10:38:00,54.7,37.4,30.25,ESE,113,1.0,7.0,52,0.00,,,0.00,meteohub,2013-02-23 18:38:00,
2013-02-23 10:43:00,55.0,36.7,30.25,NW,323,2.0,7.0,50,0.00,,,0.00,meteohub,2013-02-23 18:43:00,
2013-02-23 10:48:00,55.2,37.4,30.25,NNE,25,4.0,7.0,51,0.00,,,0.00,meteohub,2013-02-23 18:48:00,
2013-02-23 10:54:00,55.2,36.9,30.25,NNW,334,2.0,7.0,50,0.00,,,0.00,meteohub,2013-02-23 18:54:00,
2013-02-23 10:59:00,55.6,37.8,30.25,NW,319,1.0,7.0,51,0.00,,,0.00,meteohub,2013-02-23 18:59:00,
2013-02-23 11:04:00,55.8,36.3,30.25,NNW,335,3.0,7.0,48,0.00,,,0.00,meteohub,2013-02-23 19:04:00,
2013-02-23 11:09:00,55.6,37.8,30.25,NNW,328,2.0,6.0,51,0.00,,,0.00,meteohub,2013-02-23 19:09:00,
2013-02-23 11:14:00,55.6,36.7,30.25,North,356,5.0,6.0,49,0.00,,,0.00,meteohub,2013-02-23 19:14:00,
2013-02-23 11:19:00,56.1,35.6,30.25,NW,325,1.0,6.0,46,0.00,,,0.00,meteohub,2013-02-23 19:19:00,
2013-02-23 11:24:00,55.6,35.6,30.25,NNW,338,6.0,6.0,47,0.00,,,0.00,meteohub,2013-02-23 19:24:00,
2013-02-23 11:29:00,55.6,37.2,30.25,NNW,338,2.0,7.0,50,0.00,,,0.00,meteohub,2013-02-23 19:29:00,
2013-02-23 11:34:00,55.9,36.5,30.25,NNW,348,3.0,7.0,48,0.00,,,0.00,meteohub,2013-02-23 19:34:00,
2013-02-23 11:39:00,56.5,36.0,30.25,NW,320,2.0,7.0,46,0.00,,,0.00,meteohub,2013-02-23 19:39:00,
2013-02-23 11:45:00,56.5,36.5,30.24,NNE,29,2.0,7.0,47,0.00,,,0.00,meteohub,2013-02-23 19:45:00,
2013-02-23 11:50:00,56.5,37.0,30.24,NNW,329,5.0,7.0,48,0.00,,,0.00,meteohub,2013-02-23 19:50:00,
2013-02-23 11:55:00,56.5,39.0,30.24,NW,325,1.0,10.0,52,0.00,,,0.00,meteohub,2013-02-23 19:55:00,
2013-02-23 12:00:00,56.8,39.4,30.24,NNW,329,3.0,10.0,52,0.00,,,0.00,meteohub,2013-02-23 20:00:00,
2013-02-23 12:05:00,56.7,38.7,30.23,North,350,7.0,10.0,51,0.00,,,0.00,meteohub,2013-02-23 20:05:00,
2013-02-23 12:10:00,56.3,38.5,30.23,NNE,33,6.0,9.0,51,0.00,,,0.00,meteohub,2013-02-23 20:10:00,
2013-02-23 12:15:00,56.3,39.4,30.23,NW,316,6.0,9.0,53,0.00,,,0.00,meteohub,2013-02-23 20:15:00,
2013-02-23 12:20:00,56.5,39.6,30.23,North,8,4.0,10.0,53,0.00,,,0.00,meteohub,2013-02-23 20:20:00,
2013-02-23 12:25:00,56.8,38.8,30.23,NNE,13,4.0,10.0,51,0.00,,,0.00,meteohub,2013-02-23 20:25:00,
2013-02-23 12:30:00,56.8,38.8,30.22,North,356,4.0,10.0,51,0.00,,,0.00,meteohub,2013-02-23 20:30:00,
2013-02-23 12:36:00,56.8,39.4,30.22,NW,318,8.0,10.0,52,0.00,,,0.00,meteohub,2013-02-23 20:36:00,
2013-02-23 12:41:00,56.8,39.4,30.22,NW,326,3.0,12.0,52,0.00,,,0.00,meteohub,2013-02-23 20:41:00,
2013-02-23 12:46:00,56.8,38.8,30.22,North,354,8.0,12.0,51,0.00,,,0.00,meteohub,2013-02-23 20:46:00,
2013-02-23 12:51:00,56.7,39.2,30.22,North,356,2.0,11.0,52,0.00,,,0.00,meteohub,2013-02-23 20:51:00,
2013-02-23 12:56:00,56.7,39.2,30.22,NW,322,4.0,17.0,52,0.00,,,0.00,meteohub,2013-02-23 20:56:00,
2013-02-23 13:01:00,56.5,40.1,30.22,North,3,7.0,17.0,54,0.00,,,0.00,meteohub,2013-02-23 21:01:00,
2013-02-23 13:06:00,56.7,40.3,30.21,NW,324,2.0,12.0,54,0.00,,,0.00,meteohub,2013-02-23 21:06:00,
2013-02-23 13:11:00,57.0,39.6,30.21,NNE,20,2.0,10.0,52,0.00,,,0.00,meteohub,2013-02-23 21:11:00,
2013-02-23 13:16:00,57.2,39.7,30.21,NNW,348,2.0,10.0,52,0.00,,,0.00,meteohub,2013-02-23 21:16:00,
2013-02-23 13:21:00,57.0,39.0,30.20,NNW,330,3.0,11.0,51,0.00,,,0.00,meteohub,2013-02-23 21:21:00,
2013-02-23 13:27:00,57.0,40.1,30.20,North,9,3.0,13.0,53,0.00,,,0.00,meteohub,2013-02-23 21:27:00,
2013-02-23 13:32:00,57.6,40.1,30.19,North,350,5.0,13.0,52,0.00,,,0.00,meteohub,2013-02-23 21:32:00,
2013-02-23 13:37:00,57.2,40.6,30.19,North,11,9.0,12.0,54,0.00,,,0.00,meteohub,2013-02-23 21:37:00,
2013-02-23 13:42:00,57.0,40.5,30.19,NNW,327,7.0,12.0,54,0.00,,,0.00,meteohub,2013-02-23 21:42:00,
2013-02-23 13:47:00,56.8,41.4,30.19,North,356,4.0,12.0,56,0.00,,,0.00,meteohub,2013-02-23 21:47:00,
2013-02-23 13:52:00,56.8,40.5,30.18,NNW,328,6.0,13.0,54,0.00,,,0.00,meteohub,2013-02-23 21:52:00,
2013-02-23 13:57:00,56.7,40.3,30.18,North,5,5.0,13.0,54,0.00,,,0.00,meteohub,2013-02-23 21:57:00,
2013-02-23 14:02:00,56.3,40.3,30.18,NNW,345,7.0,14.0,55,0.00,,,0.00,meteohub,2013-02-23 22:02:00,
2013-02-23 14:07:00,56.3,40.3,30.18,NW,322,7.0,14.0,55,0.00,,,0.00,meteohub,2013-02-23 22:07:00,
2013-02-23 14:12:00,56.1,39.2,30.18,NNE,16,8.0,14.0,53,0.00,,,0.00,meteohub,2013-02-23 22:12:00,
2013-02-23 14:17:00,56.5,40.1,30.18,NNE,18,7.0,17.0,54,0.00,,,0.00,meteohub,2013-02-23 22:17:00,
2013-02-23 14:22:00,56.1,40.1,30.18,North,0,6.0,17.0,55,0.00,,,0.00,meteohub,2013-02-23 22:22:00,
2013-02-23 14:27:00,55.9,40.5,30.18,NNW,343,11.0,17.0,56,0.00,,,0.00,meteohub,2013-02-23 22:27:00,
2013-02-23 14:32:00,55.6,40.6,30.18,NE,40,4.0,19.0,57,0.00,,,0.00,meteohub,2013-02-23 22:32:00,
2013-02-23 14:37:00,55.8,40.3,30.18,NNE,21,1.0,19.0,56,0.00,,,0.00,meteohub,2013-02-23 22:37:00,
2013-02-23 14:42:00,55.8,39.9,30.18,North,8,9.0,19.0,55,0.00,,,0.00,meteohub,2013-02-23 22:42:00,
2013-02-23 14:47:00,55.9,40.5,30.18,NNE,32,3.0,14.0,56,0.00,,,0.00,meteohub,2013-02-23 22:47:00,
2013-02-23 14:52:00,55.9,40.5,30.18,NW,323,9.0,14.0,56,0.00,,,0.00,meteohub,2013-02-23 22:52:00,
2013-02-23 14:57:00,55.8,40.8,30.18,North,359,6.0,13.0,57,0.00,,,0.00,meteohub,2013-02-23 22:57:00,
2013-02-23 15:02:00,56.1,41.5,30.18,East,99,2.0,12.0,58,0.00,,,0.00,meteohub,2013-02-23 23:02:00,
2013-02-23 15:07:00,55.9,41.9,30.18,WNW,295,2.0,12.0,59,0.00,,,0.00,meteohub,2013-02-23 23:07:00,
2013-02-23 15:12:00,55.9,41.9,30.18,NNW,340,3.0,11.0,59,0.00,,,0.00,meteohub,2013-02-23 23:12:00,
2013-02-23 15:17:00,56.3,41.7,30.17,NNE,15,1.0,11.0,58,0.00,,,0.00,meteohub,2013-02-23 23:17:00,
2013-02-23 15:22:00,56.7,41.2,30.17,North,6,0.0,11.0,56,0.00,,,0.00,meteohub,2013-02-23 23:22:00,
2013-02-23 15:27:00,57.0,40.5,30.17,NNW,347,2.0,11.0,54,0.00,,,0.00,meteohub,2013-02-23 23:27:00,
2013-02-23 15:32:00,57.2,39.7,30.17,NNE,12,4.0,10.0,52,0.00,,,0.00,meteohub,2013-02-23 23:32:00,
2013-02-23 15:37:00,57.4,39.4,30.17,East,88,10.0,14.0,51,0.00,,,0.00,meteohub,2013-02-23 23:37:00,
2013-02-23 15:42:00,56.8,40.5,30.17,West,278,1.0,14.0,54,0.00,,,0.00,meteohub,2013-02-23 23:42:00,
2013-02-23 15:47:00,56.8,39.9,30.17,NNE,21,8.0,11.0,53,0.00,,,0.00,meteohub,2013-02-23 23:47:00,
2013-02-23 15:52:00,56.8,39.9,30.17,North,6,6.0,11.0,53,0.00,,,0.00,meteohub,2013-02-23 23:52:00,
2013-02-23 15:57:00,57.4,39.4,30.17,North,6,4.0,10.0,51,0.00,,,0.00,meteohub,2013-02-23 23:57:00,
2013-02-23 16:02:00,57.4,38.8,30.16,North,11,6.0,10.0,50,0.00,,,0.00,meteohub,2013-02-24 00:02:00,
2013-02-23 16:07:00,57.6,38.5,30.16,NNW,328,7.0,9.0,49,0.00,,,0.00,meteohub,2013-02-24 00:07:00,
2013-02-23 16:12:00,57.6,39.0,30.16,North,1,5.0,9.0,50,0.00,,,0.00,meteohub,2013-02-24 00:12:00,
2013-02-23 16:17:00,57.0,39.6,30.16,NNW,343,2.0,8.0,52,0.00,,,0.00,meteohub,2013-02-24 00:17:00,
2013-02-23 16:22:00,57.4,39.4,30.16,NW,305,2.0,8.0,51,0.00,,,0.00,meteohub,2013-02-24 00:22:00,
2013-02-23 16:27:00,57.2,39.2,30.16,NNW,334,5.0,8.0,51,0.00,,,0.00,meteohub,2013-02-24 00:27:00,
2013-02-23 16:32:00,56.7,38.7,30.17,NW,316,6.0,6.0,51,0.00,,,0.00,meteohub,2013-02-24 00:32:00,
2013-02-23 16:38:00,56.5,38.7,30.16,North,1,4.0,11.0,51,0.00,,,0.00,meteohub,2013-02-24 00:38:00,
2013-02-23 16:43:00,56.5,39.0,30.16,NNW,338,3.0,11.0,52,0.00,,,0.00,meteohub,2013-02-24 00:43:00,
2013-02-23 16:48:00,56.7,38.7,30.16,NE,39,1.0,11.0,51,0.00,,,0.00,meteohub,2013-02-24 00:48:00,
2013-02-23 16:53:00,56.3,37.9,30.16,NNW,345,5.0,9.0,50,0.00,,,0.00,meteohub,2013-02-24 00:53:00,
2013-02-23 16:58:00,55.8,37.4,30.16,North,1,2.0,9.0,50,0.00,,,0.00,meteohub,2013-02-24 00:58:00,
2013-02-23 17:03:00,55.8,37.9,30.17,North,358,4.0,9.0,51,0.00,,,0.00,meteohub,2013-02-24 01:03:00,
2013-02-23 17:08:00,55.6,36.7,30.16,NNW,344,1.0,8.0,49,0.00,,,0.00,meteohub,2013-02-24 01:08:00,
2013-02-23 17:13:00,55.4,37.0,30.16,North,356,1.0,4.0,50,0.00,,,0.00,meteohub,2013-02-24 01:13:00,
2013-02-23 17:18:00,55.2,36.9,30.17,NW,324,1.0,4.0,50,0.00,,,0.00,meteohub,2013-02-24 01:18:00,
2013-02-23 17:23:00,55.0,37.2,30.16,North,349,1.0,3.0,51,0.00,,,0.00,meteohub,2013-02-24 01:23:00,
2013-02-23 17:29:00,54.9,36.5,30.17,North,0,3.0,5.0,50,0.00,,,0.00,meteohub,2013-02-24 01:29:00,
2013-02-23 17:34:00,54.7,36.3,30.17,NNW,338,1.0,5.0,50,0.00,,,0.00,meteohub,2013-02-24 01:34:00,
2013-02-23 17:39:00,54.3,36.5,30.17,NNE,13,3.0,5.0,51,0.00,,,0.00,meteohub,2013-02-24 01:39:00,
2013-02-23 17:44:00,54.3,36.1,30.17,NNW,342,3.0,7.0,50,0.00,,,0.00,meteohub,2013-02-24 01:44:00,
2013-02-23 17:49:00,54.1,35.4,30.17,NW,306,5.0,9.0,49,0.00,,,0.00,meteohub,2013-02-24 01:49:00,
2013-02-23 17:54:00,54.1,36.0,30.17,WSW,243,5.0,9.0,50,0.00,,,0.00,meteohub,2013-02-24 01:54:00,
2013-02-23 17:59:00,54.0,36.3,30.17,NNW,334,2.0,9.0,51,0.00,,,0.00,meteohub,2013-02-24 01:59:00,
2013-02-23 18:04:00,53.8,36.1,30.17,North,350,4.0,10.0,51,0.00,,,0.00,meteohub,2013-02-24 02:04:00,
2013-02-23 18:09:00,53.6,36.3,30.17,North,6,4.0,10.0,52,0.00,,,0.00,meteohub,2013-02-24 02:09:00,
2013-02-23 18:15:00,53.4,36.3,30.18,NW,316,2.0,10.0,52,0.00,,,0.00,meteohub,2013-02-24 02:15:00,
2013-02-23 18:20:00,53.2,36.5,30.18,North,349,4.0,7.0,53,0.00,,,0.00,meteohub,2013-02-24 02:20:00,
2013-02-23 18:25:00,53.1,37.8,30.18,NNW,338,1.0,6.0,56,0.00,,,0.00,meteohub,2013-02-24 02:25:00,
2013-02-23 18:30:00,52.7,37.4,30.18,North,3,7.0,7.0,56,0.00,,,0.00,meteohub,2013-02-24 02:30:00,
2013-02-23 18:35:00,52.5,37.2,30.18,NNW,347,6.0,8.0,56,0.00,,,0.00,meteohub,2013-02-24 02:35:00,
2013-02-23 18:40:00,52.5,36.9,30.18,ENE,62,3.0,8.0,55,0.00,,,0.00,meteohub,2013-02-24 02:40:00,
2013-02-23 18:45:00,52.5,37.8,30.18,NNE,13,4.0,8.0,57,0.00,,,0.00,meteohub,2013-02-24 02:45:00,
2013-02-23 18:50:00,52.3,37.6,30.18,NNW,333,4.0,8.0,57,0.00,,,0.00,meteohub,2013-02-24 02:50:00,
2013-02-23 18:56:00,52.3,37.9,30.19,NE,37,4.0,9.0,58,0.00,,,0.00,meteohub,2013-02-24 02:56:00,
2013-02-23 19:01:00,52.2,37.8,30.19,WNW,300,2.0,9.0,58,0.00,,,0.00,meteohub,2013-02-24 03:01:00,
2013-02-23 19:06:00,52.2,38.3,30.19,NNW,336,1.0,9.0,59,0.00,,,0.00,meteohub,2013-02-24 03:06:00,
2013-02-23 19:11:00,52.0,37.6,30.19,NNE,25,0.0,6.0,58,0.00,,,0.00,meteohub,2013-02-24 03:11:00,
2013-02-23 19:16:00,52.0,36.3,30.18,North,6,2.0,4.0,55,0.00,,,0.00,meteohub,2013-02-24 03:16:00,
2013-02-23 19:21:00,52.2,36.9,30.19,NNW,340,2.0,4.0,56,0.00,,,0.00,meteohub,2013-02-24 03:21:00,
2013-02-23 19:26:00,52.3,36.7,30.19,NNW,338,3.0,4.0,55,0.00,,,0.00,meteohub,2013-02-24 03:26:00,
2013-02-23 19:31:00,52.5,36.3,30.19,NW,318,1.0,5.0,54,0.00,,,0.00,meteohub,2013-02-24 03:31:00,
2013-02-23 19:36:00,52.3,37.0,30.19,NW,318,2.0,5.0,56,0.00,,,0.00,meteohub,2013-02-24 03:36:00,
2013-02-23 19:42:00,52.5,37.8,30.19,NNW,338,2.0,5.0,57,0.00,,,0.00,meteohub,2013-02-24 03:42:00,
2013-02-23 19:47:00,52.5,37.2,30.19,North,5,1.0,6.0,56,0.00,,,0.00,meteohub,2013-02-24 03:47:00,
2013-02-23 19:52:00,52.5,36.9,30.19,NNE,25,1.0,6.0,55,0.00,,,0.00,meteohub,2013-02-24 03:52:00,
2013-02-23 19:57:00,52.5,37.2,30.19,NNW,330,1.0,6.0,56,0.00,,,0.00,meteohub,2013-02-24 03:57:00,
2013-02-23 20:02:00,52.3,37.0,30.20,NNW,336,1.0,6.0,56,0.00,,,0.00,meteohub,2013-02-24 04:02:00,
2013-02-23 20:07:00,52.2,37.4,30.20,WNW,284,1.0,6.0,57,0.00,,,0.00,meteohub,2013-02-24 04:07:00,
2013-02-23 20:12:00,52.2,36.9,30.20,NE,39,2.0,4.0,56,0.00,,,0.00,meteohub,2013-02-24 04:12:00,
2013-02-23 20:17:00,52.0,36.3,30.20,NNW,340,0.0,5.0,55,0.00,,,0.00,meteohub,2013-02-24 04:17:00,
2013-02-23 20:22:00,52.0,36.3,30.20,NW,326,1.0,5.0,55,0.00,,,0.00,meteohub,2013-02-24 04:22:00,
2013-02-23 20:27:00,51.8,36.1,30.20,North,356,1.0,5.0,55,0.00,,,0.00,meteohub,2013-02-24 04:27:00,
2013-02-23 20:32:00,51.6,36.5,30.20,WNW,286,1.0,4.0,56,0.00,,,0.00,meteohub,2013-02-24 04:32:00,
2013-02-23 20:37:00,51.4,36.7,30.20,North,352,2.0,4.0,57,0.00,,,0.00,meteohub,2013-02-24 04:37:00,
2013-02-23 20:42:00,51.6,36.0,30.20,North,358,1.0,4.0,55,0.00,,,0.00,meteohub,2013-02-24 04:42:00,
2013-02-23 20:47:00,51.4,36.3,30.20,NNW,336,0.0,4.0,56,0.00,,,0.00,meteohub,2013-02-24 04:47:00,
2013-02-23 20:52:00,51.3,36.5,30.20,North,359,2.0,4.0,57,0.00,,,0.00,meteohub,2013-02-24 04:52:00,
2013-02-23 20:57:00,51.3,37.0,30.21,NNE,15,2.0,4.0,58,0.00,,,0.00,meteohub,2013-02-24 04:57:00,
2013-02-23 21:00:00,51.3,36.5,30.21,ENE,72,2.0,4.0,57,0.00,,,0.00,meteohub,2013-02-24 05:00:00,
2013-02-23 21:01:00,51.3,36.1,30.21,East,91,1.0,3.0,56,0.00,,,0.00,meteohub,2013-02-24 05:01:00,
2013-02-23 21:02:00,51.3,36.1,30.21,NNE,17,4.0,4.0,56,0.00,,,0.00,meteohub,2013-02-24 05:02:00,
2013-02-23 21:07:00,51.3,36.5,30.21,NNE,18,2.0,6.0,57,0.00,,,0.00,meteohub,2013-02-24 05:07:00,
2013-02-23 21:12:00,51.3,37.0,30.22,NNW,336,1.0,6.0,58,0.00,,,0.00,meteohub,2013-02-24 05:12:00,
2013-02-23 21:17:00,51.3,36.1,30.21,ENE,63,9.0,9.0,56,0.00,,,0.00,meteohub,2013-02-24 05:17:00,
2013-02-23 21:22:00,51.3,36.1,30.21,North,5,4.0,9.0,56,0.00,,,0.00,meteohub,2013-02-24 05:22:00,
2013-02-23 21:28:00,51.4,36.3,30.22,ENE,73,1.0,9.0,56,0.00,,,0.00,meteohub,2013-02-24 05:28:00,
2013-02-23 21:33:00,51.3,36.5,30.22,NNW,347,3.0,9.0,57,0.00,,,0.00,meteohub,2013-02-24 05:33:00,
2013-02-23 21:38:00,51.3,35.6,30.22,North,359,0.0,6.0,55,0.00,,,0.00,meteohub,2013-02-24 05:38:00,
2013-02-23 21:43:00,51.3,35.2,30.22,NE,36,1.0,6.0,54,0.00,,,0.00,meteohub,2013-02-24 05:43:00,
2013-02-23 21:48:00,51.3,34.7,30.22,ENE,77,0.0,6.0,53,0.00,,,0.00,meteohub,2013-02-24 05:48:00,
2013-02-23 21:53:00,51.3,35.2,30.22,ENE,71,1.0,5.0,54,0.00,,,0.00,meteohub,2013-02-24 05:53:00,
2013-02-23 21:58:00,51.3,36.5,30.22,NE,51,1.0,5.0,57,0.00,,,0.00,meteohub,2013-02-24 05:58:00,
2013-02-23 22:03:00,51.3,36.1,30.22,NNW,346,3.0,5.0,56,0.00,,,0.00,meteohub,2013-02-24 06:03:00,
2013-02-23 22:08:00,51.1,36.0,30.22,ENE,59,5.0,7.0,56,0.00,,,0.00,meteohub,2013-02-24 06:08:00,
2013-02-23 22:13:00,51.3,36.5,30.22,North,8,2.0,7.0,57,0.00,,,0.00,meteohub,2013-02-24 06:13:00,
2013-02-23 22:18:00,51.1,35.4,30.22,NE,39,3.0,7.0,55,0.00,,,0.00,meteohub,2013-02-24 06:18:00,
2013-02-23 22:24:00,50.7,36.5,30.22,NNW,328,1.0,6.0,58,0.00,,,0.00,meteohub,2013-02-24 06:24:00,
2013-02-23 22:29:00,50.5,36.7,30.22,NNE,16,6.0,6.0,59,0.00,,,0.00,meteohub,2013-02-24 06:29:00,
2013-02-23 22:34:00,50.7,37.4,30.22,WNW,290,3.0,4.0,60,0.00,,,0.00,meteohub,2013-02-24 06:34:00,
2013-02-23 22:39:00,50.7,37.8,30.22,North,352,7.0,7.0,61,0.00,,,0.00,meteohub,2013-02-24 06:39:00,
2013-02-23 22:44:00,50.7,36.5,30.22,North,0,4.0,8.0,58,0.00,,,0.00,meteohub,2013-02-24 06:44:00,
2013-02-23 22:49:00,50.7,37.4,30.22,NNW,341,3.0,8.0,60,0.00,,,0.00,meteohub,2013-02-24 06:49:00,
2013-02-23 22:54:00,50.7,37.4,30.22,East,83,3.0,8.0,60,0.00,,,0.00,meteohub,2013-02-24 06:54:00,
2013-02-23 22:59:00,50.7,38.7,30.22,NNW,342,3.0,8.0,63,0.00,,,0.00,meteohub,2013-02-24 06:59:00,
2013-02-23 23:04:00,50.5,37.2,30.22,NNW,338,4.0,8.0,60,0.00,,,0.00,meteohub,2013-02-24 07:04:00,
2013-02-23 23:09:00,50.5,37.9,30.22,NNW,335,3.0,8.0,62,0.00,,,0.00,meteohub,2013-02-24 07:09:00,
2013-02-23 23:14:00,50.5,36.7,30.22,NNE,29,3.0,6.0,59,0.00,,,0.00,meteohub,2013-02-24 07:14:00,
2013-02-23 23:20:00,50.5,35.4,30.22,North,6,3.0,5.0,56,0.00,,,0.00,meteohub,2013-02-24 07:20:00,
2013-02-23 23:25:00,50.5,35.1,30.22,NE,34,4.0,6.0,55,0.00,,,0.00,meteohub,2013-02-24 07:25:00,
2013-02-23 23:30:00,50.7,34.7,30.22,NW,318,1.0,6.0,54,0.00,,,0.00,meteohub,2013-02-24 07:30:00,
2013-02-23 23:35:00,50.5,35.1,30.22,WSW,242,1.0,6.0,55,0.00,,,0.00,meteohub,2013-02-24 07:35:00,
2013-02-23 23:40:00,50.4,35.2,30.22,NNW,345,1.0,6.0,56,0.00,,,0.00,meteohub,2013-02-24 07:40:00,
2013-02-23 23:45:00,50.5,36.0,30.22,North,352,2.0,5.0,57,0.00,,,0.00,meteohub,2013-02-24 07:45:00,
2013-02-23 23:50:00,50.5,33.6,30.22,North,4,2.0,5.0,52,0.00,,,0.00,meteohub,2013-02-24 07:50:00,
2013-02-23 23:55:00,50.5,35.1,30.22,NNW,333,3.0,5.0,55,0.00,,,0.00,meteohub,2013-02-24 07:55:00,